Regional Weather Roundup
Issued by NWS Newport/Morehead, NC

Current Version | Previous Version | Text Only | Print | Product List | Glossary On
Versions: 1 2 3 4 5 6 7 8 9 10 11 12 13 14 15 16 17 18 19 20 21 22 23 24 25 26 27 28 29 30 31 32 33 34 35 36 37 38 39 40 41 42 43 44 45 46 47 48 49 50
000 ASUS42 KMHX 232325 RWRMHX WEATHER ROUNDUP FOR EASTERN NORTH CAROLINA NATIONAL WEATHER SERVICE NEWPORT/MOREHEAD CITY NC 700 PM EDT TUE MAY 23 2017 NOTE: "FAIR" INDICATES FEW OR NO CLOUDS BELOW 12,000 FEET WITH NO SIGNIFICANT WEATHER AND/OR OBSTRUCTIONS TO VISIBILITY NCZ015>017-031-032-045>047-102-103-240000- NORTH COAST CITY SKY/WX TMP DP RH WIND PRES REMARKS EDENTON RAIN 71 69 94 CALM 29.69F ELIZABETH CITY HVY RAIN 67 67 100 NE7 29.70F FOG KITTY HAWK HVY RAIN 69 69 100 CALM 29.69F MANTEO LGT RAIN 69 68 98 S5 29.70F $$ NCZ045>047-081-094-103-104-240000- CENTRAL COAST CITY SKY/WX TMP DP RH WIND PRES REMARKS FRISCO CLOUDY 76 70 82 SW16G26 29.73S $$ NCZ095-097-098-100-101-240000- SOUTHERN COAST CITY SKY/WX TMP DP RH WIND PRES REMARKS BEAUFORT LGT RAIN 73 72 96 SW21G28 29.74S FOG CEDAR ISLAND NOT AVBL JACKSONVILLE LGT RAIN 70 70 100 SW9 29.72S PINEY ISLAND HVY RAIN N/A N/A N/A SW23G30 29.73R WILMINGTON CLOUDY 71 70 96 SW8 29.74S $$ NCZ011>013-027>030-043-044-078>080-089-090>093-098-240000- COASTAL PLAIN CITY SKY/WX TMP DP RH WIND PRES REMARKS AHOSKIE RAIN 64 64 98 NE6 29.70F CLINTON RAIN 71 71 100 SW3 29.71S ELIZABETHTOWN DRIZZLE 72 72 100 S5 29.72F GOLDSBORO PTSUNNY 72 72 100 S5 29.67S GREENVILLE RAIN 70 70 100 SE5 29.71F HAVELOCK LGT RAIN 71 68 90 SW17G23 29.74R KENANSVILLE LGT RAIN 70 68 94 SW5 29.71S KINSTON LGT RAIN 70 70 100 S9 29.69F NEW BERN RAIN 70 69 97 SW15 29.73R FOG RICHLANDS LGT RAIN 69 68 96 SW12 29.73S ROCKY MOUNT LGT RAIN 67 67 100 NE10G17 29.67F FOG WASHINGTON LGT RAIN 70 69 98 SW7 29.68F WHITEVILLE CLOUDY 72 71 96 SW3 29.73F $$ AMZ130-135-150-152-154-156-158-170-250-252-270-ANZ085-086-088-633-658-670-240000- MARINE OBSERVATIONS STATION/POSITION TIME TEMP WIND PRES WAVE SWELL AIR SEA DIR/SP/G HT/PER HT/PER (UTC) (F) (DEG/KT/KT) (MB) (FT/S) (FT/S) CHESAPEAKE LIGHT NOT AVBL 64 E VA BEACH 2250 67 66 80/ 14/ 17 1007.0 4/ 5 2/ 7 DUCK 2254 66 64 110/ 11/ 12 1005.2 2 E DUCK 2300 65 N/A 3/ 8 OREGON INLET 2254 73 72 190/ 16/ 19 1005.8 13E OREGON INLT 2248 66 N/A 5/ 6 2/12 HATTERAS CG 2254 75 74 190/ 7/ 12 1006.3 DIAMOND BUOY 2250 76 76 200/ 23/ 29 1006.5 7/ 6 2/11 CAPE LOOKOUT 2300 73 220/ 17/ 23 1007.0 BEAUFORT LAB 2254 72 73 230/ 8/ 16 1006.5 30 SE NEW RVR IN 2308 74 76 230/ 19/ 25 1007.2 30 SE NEW RVR IN 2313 76 N/A 6/ 7 27 SE WRIGHTSVLE 2308 75 75 220/ 19/ 25 1006.6 5 SE WRIGHTSVLE 2308 74 75 240/ 10/ 16 1007.1 225 S CAPE HAT 2250 77 76 190/ 17/ 19 1011.5 5/ 6 2/13 41 SE CHARLESTON 2310 78 78 200/ 16/ 21 1007.0 $$

USA.gov is the U.S. government's official web portal to all federal, state and local government web resources and services.